Location: Castiglione Fibocchi
(43.5333°N, 11.7667°E)
Time: 16:37:32
(UTC+00:00)

Cosmos 2298 Rocket - Pass Details

Date: 15 August 2020
Orbit: 776 x 784 km, 74.0° (Epoch: 19 September)

Event Time Altitude Azimuth Distance (km) Brightness Sun altitude
Exits shadow 01:57:59 50° 233° (SW) 989 4.1 -21.8°
Maximum altitude 01:59:14 68° 292° (WNW) 845 4.0 -21.7°
Drops below altitude 10° 02:04:33 10° 16° (NNE) 2,349 7.4 -21.0°
Sets 02:06:58 0° 19° (NNE) 3,282 8.4 -20.7°
